Wind_Speed
7 8 5 4 2 3 2 2 2 3 4 2 1 3 5 6 5 4 3 3 3 3 3 2 1 2 2 2 2 2 2 3 4 6 5 1 4 7 6 5 4 5 4 4 6 9 11 12 13 13 14 15 15 14 13 12 11 11 11 10 8 7 5 4 3 2 3 5 6 7 9 11 11 12 13 14 14 15 15 14 13 13 13 14 14 15
7 6 3 1 1 3 3 2 3 4 4 2 1 1 3 5 4 3 2 1 1 2 2 2 1 1 3 4 3 2 3 4 3 4 5 4 1 3 5 5 6 7 7 5 5 8 10 12 14 14 16 18 17 15 14 13 12 11 10 9 8 6 5 4 3 2 4 5 7 8 10 12 13 13 14 14 14 15 15 15 14 13 13 13 13 13
5 4 4 2 3 4 1 2 3 4 4 2 1 2 2 3 3 2 1 1 1 1 2 4 3 2 5 7 5 3 2 3 3 3 3 2 1 2 3 5 7 8 8 6 5 7 9 11 13 14 17 20 19 17 16 15 14 13 11 10 8 7 5 4 2 2 4 5 7 8 9 10 11 12 12 13 13 14 15 14 14 13 13 13 13 13
2 2 4 5 4 3 2 1 2 3 4 3 1 2 2 1 2 2 1 1 1 2 3 5 5 3 4 5 5 4 4 4 5 5 4 3 1 2 3 4 7 8 7 6 6 6 8 9 11 13 17 21 20 18 17 16 16 15 14 12 11 8 6 4 2 2 3 5 7 8 9 9 11 12 12 12 13 13 14 13 13 12 13 13 13 12
4 4 6 7 5 4 4 5 3 3 4 4 3 1 1 1 1 1 1 2 3 3 4 6 7 5 4 3 3 4 4 4 5 6 5 5 5 5 4 4 7 9 8 7 6 6 7 7 9 11 15 20 21 19 18 17 17 17 17 15 12 11 8 5 2 2 3 5 7 8 9 10 12 13 13 14 14 14 14 13 11 11 11 11 11 10
5 5 6 5 6 7 6 6 7 4 1 2 3 2 3 3 1 2 2 2 5 4 3 4 4 6 8 5 3 3 3 3 5 5 5 6 7 7 6 5 6 8 9 9 8 8 8 8 9 11 13 17 20 20 20 19 18 17 18 16 13 12 9 5 2 1 3 5 6 7 9 11 13 14 15 16 16 16 15 13 11 9 9 9 8 8
3 4 5 3 5 7 6 6 7 3 2 1 2 2 3 3 1 1 2 3 4 4 2 2 2 4 9 6 4 3 3 2 4 4 4 6 7 7 7 7 7 8 9 9 10 10 10 9 10 11 11 13 17 20 20 20 20 18 17 16 14 12 10 6 3 1 3 4 5 6 8 10 12 13 15 16 16 17 16 15 13 11 10 9 8 8
4 4 5 3 3 3 3 4 4 3 3 3 3 2 1 1 1 2 2 3 4 4 4 3 3 5 8 7 5 4 2 1 2 2 4 6 6 6 6 7 7 8 10 11 11 12 12 11 11 11 10 11 15 18 19 18 18 16 14 17 16 13 11 6 3 2 3 4 5 6 7 9 10 12 13 14 15 16 17 16 16 15 13 12 10 10
5 4 3 1 2 1 2 4 4 5 4 5 4 3 3 4 4 3 3 2 5 4 5 4 3 4 7 6 5 4 3 3 3 0 2 4 6 6 6 6 7 7 10 12 12 13 13 11 10 10 11 12 15 17 17 16 17 14 15 18 17 14 11 7 4 3 3 3 5 6 7 9 10 11 12 13 14 15 16 16 16 16 15 14 13 12
7 5 4 3 4 3 2 2 3 4 4 4 5 4 5 6 5 4 4 2 5 4 4 2 2 3 5 6 5 4 5 6 6 4 1 3 6 6 5 5 6 7 9 11 12 13 13 11 10 11 13 14 16 16 16 16 16 15 17 18 16 14 11 7 5 3 3 3 5 7 8 9 11 12 12 13 14 15 16 16 16 15 15 15 15 14
8 7 7 7 7 6 4 1 2 3 2 3 5 3 3 4 4 5 3 1 2 3 2 2 1 3 2 5 5 3 5 6 7 5 2 1 3 4 3 2 2 4 6 8 10 11 12 12 12 12 14 15 16 16 16 16 16 15 17 18 16 14 11 8 5 4 4 4 5 7 8 10 11 13 14 14 16 16 17 17 17 16 15 15 14 15
6 6 6 6 6 6 5 3 3 2 1 1 4 2 3 1 3 2 2 3 2 1 3 6 5 3 3 4 5 2 3 4 5 6 5 5 4 3 3 4 4 2 2 3 5 6 8 9 11 11 14 16 16 16 15 15 15 15 16 17 16 14 10 8 6 5 4 4 5 7 9 10 12 14 15 16 17 18 18 18 18 18 17 16 14 14
5 6 5 4 5 4 4 3 3 4 1 1 3 1 2 2 3 2 2 1 1 0 5 7 3 1 3 4 4 2 4 2 4 6 6 7 8 8 6 6 6 6 4 3 2 2 3 5 6 9 13 15 15 14 13 13 14 15 16 17 16 14 11 9 7 6 6 6 7 8 9 10 12 15 16 17 18 19 19 19 19 19 19 17 16 15
5 5 3 3 3 4 4 3 2 4 3 0 1 3 2 3 3 2 2 2 2 2 7 6 2 2 2 2 3 3 5 1 4 5 6 8 10 10 9 7 7 7 6 4 3 2 2 1 2 7 11 12 12 11 11 12 13 14 15 15 15 14 12 10 9 8 8 8 9 10 10 11 12 14 16 17 18 19 20 20 19 19 19 18 17 16
4 3 3 3 3 4 4 4 3 2 1 1 2 2 2 3 3 1 2 1 2 2 6 5 2 3 5 3 1 4 5 2 4 5 6 7 10 10 9 8 7 7 7 6 4 3 2 2 2 5 8 9 9 10 10 11 12 13 13 14 14 14 13 11 11 10 10 11 12 12 12 12 12 13 15 17 18 19 20 20 20 20 20 19 18 17
4 5 5 3 3 3 4 5 5 2 1 1 2 3 3 3 3 2 2 1 2 1 4 5 3 4 4 3 5 6 3 4 5 5 6 7 9 9 8 8 8 7 7 6 5 4 2 2 3 4 6 7 8 9 9 10 11 12 12 13 13 14 14 14 13 13 13 13 14 14 14 14 13 13 15 17 18 19 19 20 20 20 20 19 18 18
3 5 5 4 3 3 2 5 6 5 3 2 4 6 5 4 3 2 2 2 3 2 2 5 4 4 2 5 6 5 3 4 5 5 5 6 8 8 8 8 8 7 7 7 6 5 3 1 2 3 4 5 7 7 8 9 10 11 12 13 14 15 15 15 15 15 15 15 15 16 15 16 15 14 15 17 18 18 18 19 19 19 20 19 18 18
1 3 4 3 3 2 3 5 5 6 5 3 4 5 3 2 2 1 1 2 4 2 1 4 5 4 4 4 4 3 1 3 4 4 5 5 6 6 7 7 8 8 7 7 7 6 4 3 0 2 4 5 6 6 7 8 10 11 12 13 14 15 15 16 17 17 17 17 17 17 16 16 16 15 15 15 17 17 18 17 17 18 19 19 18 18
2 2 2 1 3 2 2 2 2 5 5 5 4 2 1 1 1 1 1 1 2 1 1 3 3 3 3 1 3 3 2 2 3 4 4 4 4 4 5 5 6 6 6 6 6 5 4 3 1 2 3 4 6 7 8 9 10 11 12 13 14 14 15 17 18 18 18 19 18 18 17 17 17 16 14 15 16 17 17 17 16 18 19 19 18 17
3 2 2 1 1 2 1 1 2 4 5 4 3 2 2 2 1 2 2 2 1 1 1 2 2 1 1 2 3 4 5 5 4 4 3 3 2 2 3 4 4 4 4 4 3 3 4 3 2 3 3 4 5 7 9 10 11 12 12 13 14 15 16 18 18 18 19 19 19 19 18 18 19 17 14 14 15 16 17 16 15 17 18 18 18 17
4 3 1 2 4 4 1 3 4 4 4 3 2 2 3 3 3 2 2 2 2 2 2 1 1 2 2 1 1 2 3 5 7 6 4 3 2 2 3 3 4 3 3 3 2 2 3 4 4 4 4 5 6 7 8 9 10 11 11 12 14 15 16 18 19 19 19 19 20 19 19 19 20 18 15 14 14 15 16 15 14 16 18 18 18 17
4 4 2 2 2 0 4 6 5 5 5 4 4 5 5 4 3 1 1 2 3 0 1 2 2 3 3 3 1 1 2 4 6 7 7 8 7 5 5 4 4 3 3 3 3 3 4 3 4 5 5 7 8 8 8 8 9 9 10 11 12 14 15 17 19 20 20 20 20 20 21 21 21 19 15 13 14 15 16 16 14 15 18 18 19 18
5 3 3 4 6 6 8 8 7 7 6 5 6 6 7 5 4 3 1 2 2 2 1 2 2 3 4 4 1 6 8 9 9 9 9 9 9 9 9 8 8 7 5 5 5 5 5 5 4 4 5 7 9 10 9 9 9 10 11 12 13 14 14 16 18 19 20 21 21 22 22 21 20 18 15 13 14 15 17 16 13 14 17 18 18 19
6 3 3 6 9 9 9 9 9 8 6 4 5 6 5 5 5 3 2 3 3 3 2 2 1 3 3 4 6 11 12 11 11 10 9 8 8 9 10 11 12 11 10 10 10 9 7 6 5 4 4 6 8 11 11 10 10 10 11 12 13 14 14 15 17 18 19 20 20 22 22 21 20 17 14 13 14 16 17 16 13 13 15 16 17 18
6 5 4 4 7 5 5 6 6 5 2 1 4 4 4 4 4 3 2 1 2 4 4 3 2 4 4 6 9 11 11 11 11 10 8 8 9 9 10 11 11 11 12 13 12 10 9 9 9 8 8 8 9 11 13 13 12 12 12 12 13 13 14 16 16 17 18 18 19 20 20 19 18 16 14 13 15 16 16 16 13 12 14 15 16 18
7 6 4 2 4 4 4 4 5 5 6 6 6 5 5 5 5 4 1 2 3 3 5 5 6 8 7 7 9 10 12 14 13 11 9 10 10 9 9 10 9 8 10 12 11 11 11 12 13 14 14 13 12 13 15 14 13 12 13 13 13 13 14 16 17 17 18 18 18 18 17 16 15 15 14 14 16 17 17 16 14 12 13 15 15 17
7 5 3 2 3 4 4 4 5 6 8 9 9 8 7 6 6 5 4 5 5 4 7 9 10 12 10 9 11 13 13 13 11 9 8 9 10 9 8 9 9 8 8 9 11 11 11 12 13 13 15 15 15 15 17 17 14 13 14 14 14 14 15 16 17 17 17 18 18 17 16 15 15 15 14 15 17 17 16 16 14 12 12 14 15 16
4 3 3 4 4 3 1 2 4 6 8 8 10 10 9 7 6 6 5 5 5 5 7 9 9 11 12 11 13 13 11 9 8 7 7 8 9 8 8 9 9 8 7 8 11 11 11 11 12 13 14 15 16 16 18 19 18 15 15 15 15 15 16 17 17 16 17 18 18 18 17 15 14 15 15 16 17 17 16 15 13 11 12 13 14 16
2 3 4 4 3 3 3 3 5 6 6 7 10 10 8 7 7 6 5 4 4 4 6 7 7 10 11 11 10 9 9 8 8 8 9 8 7 8 9 9 9 8 7 9 11 12 12 14 15 17 18 18 18 18 18 19 19 18 16 16 15 15 16 17 16 16 16 17 17 17 16 14 14 15 15 16 17 16 15 14 12 11 11 12 13 14
1 3 3 2 2 2 2 3 4 5 7 10 10 6 4 4 5 5 5 4 4 5 7 7 7 9 10 8 7 7 9 10 10 10 10 8 7 8 9 9 8 7 7 8 10 12 14 17 18 19 20 20 21 19 18 18 17 17 16 15 15 15 17 17 18 17 15 14 15 17 16 15 14 15 15 16 17 16 15 13 12 11 10 11 12 13
1 2 2 2 1 1 2 2 4 7 10 10 6 3 3 3 2 3 4 4 5 6 6 7 8 9 8 6 7 8 10 12 13 13 11 8 8 8 8 8 7 7 8 10 12 14 16 17 18 19 18 17 17 16 16 16 16 14 14 15 17 16 17 17 18 17 15 13 14 16 16 15 15 16 16 17 17 16 15 13 12 10 10 10 10 11
5 4 3 3 3 3 3 2 5 9 8 6 7 6 5 4 3 3 3 4 5 6 7 8 9 9 9 9 11 11 11 12 13 13 11 9 8 8 7 8 8 8 10 11 12 15 17 16 16 18 18 15 12 12 13 14 15 14 14 17 18 16 15 15 15 15 15 14 14 14 15 17 17 17 18 17 16 15 15 15 13 11 10 10 10 10
6 5 4 3 4 4 3 2 7 8 3 5 10 9 5 3 2 2 3 3 4 5 7 8 9 11 12 12 12 10 9 9 9 10 10 9 8 8 8 9 9 9 10 11 13 15 17 15 14 17 19 15 11 10 11 11 12 13 14 16 16 14 13 13 14 15 16 16 15 15 15 17 19 19 18 17 16 15 16 16 14 12 11 11 9 9
6 6 5 4 4 4 4 4 7 5 2 5 8 5 5 5 3 4 5 5 5 6 7 10 12 13 12 11 9 8 7 7 7 9 10 9 8 8 8 8 9 9 10 11 13 15 15 14 14 16 17 16 12 9 10 11 11 12 12 13 14 14 13 13 13 15 17 19 19 18 18 19 19 19 19 18 17 16 16 16 15 14 13 12 10 9
4 5 7 7 7 7 6 5 4 2 2 5 4 1 3 5 5 7 7 6 7 8 9 11 12 12 11 8 6 5 6 6 7 9 10 9 7 6 6 6 7 9 10 11 13 15 15 15 16 17 16 16 14 11 9 11 13 13 13 13 14 14 14 14 14 14 16 19 21 22 21 20 20 20 20 20 18 17 17 17 16 16 15 14 12 10
4 4 7 9 9 7 6 3 1 1 2 3 2 1 2 5 7 9 8 7 8 8 8 9 10 10 8 5 4 4 5 6 9 12 12 11 9 8 8 7 8 10 11 11 13 14 15 16 17 18 17 16 15 14 11 10 11 13 14 15 15 16 16 16 15 14 15 18 20 23 24 23 22 21 21 21 21 20 19 19 18 18 17 16 15 12
5 5 5 8 9 7 6 5 4 3 2 1 2 1 3 7 10 10 8 7 6 6 6 7 7 7 6 4 3 3 5 8 12 13 13 13 12 11 10 10 10 11 12 12 13 15 16 17 17 17 17 16 15 13 12 11 10 11 12 13 15 16 16 15 14 14 15 16 18 21 24 26 26 24 23 24 24 23 22 21 20 20 19 19 17 15
5 5 4 7 9 9 7 5 3 1 1 3 2 2 5 8 9 8 7 7 6 6 7 7 6 6 5 5 5 6 7 10 12 14 14 14 13 11 11 11 11 11 11 12 14 15 17 17 16 15 16 16 14 11 10 10 10 10 11 12 13 14 14 14 13 14 14 15 16 18 21 24 27 28 28 27 26 27 27 25 23 23 21 21 19 17
4 4 1 4 7 8 8 5 2 0 2 4 5 5 6 8 8 7 7 6 6 8 9 9 9 8 7 7 8 10 11 13 15 16 16 15 14 13 13 13 14 14 15 15 16 16 16 16 17 17 15 15 14 13 11 10 10 11 12 13 14 15 15 16 16 16 17 17 17 19 20 22 25 28 30 29 29 30 29 24 23 22 21 22 22 20
5 4 2 2 4 6 6 5 3 2 4 6 7 7 7 8 8 7 6 5 7 9 11 12 13 13 12 11 10 11 13 15 16 17 17 16 16 16 17 18 20 21 21 21 22 21 19 17 16 17 18 16 15 15 16 14 13 13 13 14 15 16 17 18 18 19 20 20 20 20 21 22 24 26 29 30 31 32 30 25 23 21 18 20 24 23
4 2 1 0 1 3 5 5 4 4 5 6 8 8 7 7 6 5 4 6 9 11 12 13 15 16 16 16 15 15 17 18 18 18 18 18 18 18 19 21 24 24 23 24 24 23 21 20 18 16 18 19 19 19 20 21 20 18 17 17 17 17 18 19 20 21 21 22 22 22 21 21 22 24 28 30 31 32 31 29 27 24 21 22 25 24
3 1 1 2 4 3 4 5 4 3 5 6 7 8 8 7 5 4 5 8 10 11 13 14 15 16 17 17 17 17 17 17 17 18 18 18 18 18 18 19 22 23 23 24 25 23 24 27 26 19 16 18 21 21 22 23 23 23 23 22 20 19 19 20 22 23 23 23 23 23 22 21 21 22 25 29 30 31 30 29 27 26 25 26 28 27
3 4 4 6 7 5 5 5 3 3 5 7 8 9 9 8 6 7 8 9 11 14 16 17 18 19 20 20 19 19 18 18 18 19 19 20 20 20 20 20 21 22 23 25 26 26 27 29 27 22 18 19 21 23 24 24 24 24 24 24 23 23 22 22 23 24 24 24 23 23 23 22 22 22 24 27 29 30 30 29 28 27 27 28 29 29
7 7 5 5 5 4 3 4 4 5 8 9 10 10 9 8 8 10 12 13 15 17 18 19 19 20 20 20 20 20 19 19 19 20 21 22 22 22 22 22 22 23 23 24 25 27 27 27 26 26 26 24 24 24 25 26 26 25 25 25 25 24 24 24 24 24 25 25 25 24 23 23 23 23 24 26 29 30 31 31 31 30 30 29 29 29
6 5 5 5 6 6 6 6 7 8 9 9 8 8 7 8 8 10 12 14 15 17 18 19 19 18 18 19 19 19 19 19 20 21 21 22 22 22 22 22 22 22 23 23 24 24 25 25 25 26 26 26 25 25 25 26 27 26 26 25 26 26 25 25 26 26 26 25 25 24 24 23 24 24 25 26 28 30 30 30 31 32 31 30 29 28
7 7 8 9 11 11 9 9 9 8 8 8 7 7 8 9 10 11 12 13 14 15 16 17 18 18 19 19 19 18 18 18 19 20 22 22 23 23 22 21 21 22 22 22 23 23 24 25 26 27 26 26 25 26 26 26 27 27 27 26 26 26 26 26 27 27 27 27 26 25 24 23 24 24 25 27 28 28 28 27 27 28 28 29 29 28
9 9 10 11 11 9 8 8 9 9 9 10 11 11 11 12 13 13 13 14 14 15 15 17 18 20 20 21 21 21 21 22 22 23 23 24 24 24 24 25 24 24 24 24 25 26 26 27 27 28 28 28 28 29 29 30 30 30 29 28 28 28 27 28 28 28 29 29 29 27 25 24 23 23 25 27 28 28 27 26 25 24 25 27 28 27
8 8 9 10 11 10 10 10 12 13 15 17 17 17 17 17 17 17 17 17 17 17 17 19 20 22 23 23 24 24 23 23 24 23 22 23 23 23 24 25 26 26 27 28 28 29 29 30 30 31 32 33 33 33 33 33 33 32 30 29 30 30 29 29 30 30 31 31 30 30 28 27 25 25 25 26 28 28 28 27 26 25 24 26 27 27
11 11 12 12 13 13 14 16 17 18 18 19 18 19 19 19 19 19 18 18 17 17 17 18 19 19 20 20 21 21 21 21 21 21 21 21 21 22 23 24 26 27 28 29 29 30 31 32 33 33 34 35 35 36 36 35 34 32 31 31 31 31 31 31 31 31 32 33 33 32 31 30 29 28 28 28 28 28 28 28 28 28 26 26 28 28
12 12 12 12 13 13 14 17 18 17 17 17 17 18 17 17 16 15 14 14 15 15 15 15 15 16 18 19 20 21 22 22 22 22 23 24 25 26 26 27 28 28 29 29 30 30 30 31 32 33 33 34 34 35 35 35 33 32 32 32 32 32 31 30 29 29 29 32 35 35 33 32 32 32 32 32 31 29 28 27 28 28 27 27 27 27
10 11 11 12 12 12 13 14 15 14 14 15 16 16 15 14 14 13 13 13 15 16 16 17 18 18 19 21 22 23 24 25 26 25 26 27 27 28 28 29 29 29 29 29 30 30 31 32 32 32 32 33 34 35 35 34 32 32 32 31 31 31 30 28 27 28 27 27 31 34 35 35 34 34 36 34 31 30 30 29 28 28 27 26 26 26
Wind_Direction
174 164 152 162 118 82 129 149 138 148 158 133 81 123 121 110 94 76 91 104 101 102 78 45 13 327 329 350 353 354 355 350 358 12 23 35 206 215 238 266 265 251 241 225 215 207 202 201 204 209 213 212 209 203 195 191 191 189 181 172 165 165 171 183 208 253 296 313 321 319 316 316 315 315 315 313 310 307 307 308 309 308 303 298 295 293
176 160 96 88 154 126 133 161 152 146 159 151 19 234 143 120 112 88 75 72 68 98 70 352 348 330 302 301 304 334 7 9 5 9 21 35 129 215 236 257 261 258 257 253 237 226 216 205 201 204 207 208 209 206 200 197 198 200 196 186 180 184 191 195 209 267 310 318 326 329 327 327 327 327 326 324 320 317 316 317 317 313 308 303 300 298
173 149 74 78 145 143 173 224 194 165 166 159 347 275 205 136 133 143 114 51 13 25 9 339 328 289 281 281 284 290 305 325 324 321 344 14 70 177 211 254 264 266 270 270 259 242 232 219 205 200 201 203 205 206 202 201 204 205 204 199 198 204 203 197 219 290 314 327 336 339 337 336 335 336 336 334 332 328 325 322 320 318 316 317 318 317
149 145 73 71 112 151 170 178 208 188 169 178 264 258 215 143 149 169 199 238 287 344 342 335 337 326 290 286 293 297 285 282 285 289 291 293 274 198 184 222 248 259 265 259 250 246 245 234 217 203 200 202 205 208 206 205 207 208 209 207 207 210 205 198 230 300 320 339 345 345 345 346 346 345 344 343 341 340 337 330 326 325 325 327 329 330
104 101 78 64 76 117 117 90 110 155 165 187 192 147 48 70 163 196 323 271 277 311 321 320 339 15 16 6 360 324 307 293 284 287 287 278 269 253 233 219 231 246 255 249 235 232 241 244 231 215 205 205 209 212 213 214 213 212 212 209 208 210 204 200 223 293 323 340 345 345 349 353 353 351 349 348 348 348 349 344 336 330 330 333 337 338
116 98 96 68 66 94 92 86 107 118 132 203 193 135 63 71 155 251 273 294 304 312 318 306 325 17 20 28 38 358 353 328 296 293 289 271 265 264 261 250 237 245 257 257 249 237 234 235 229 222 214 211 213 214 218 221 221 223 219 208 205 209 204 202 213 268 320 332 339 344 353 356 354 351 349 349 350 350 350 350 345 333 328 333 337 340
129 102 112 100 71 84 80 91 111 95 23 142 169 140 103 98 102 280 258 271 306 323 342 286 249 342 358 23 48 14 17 328 297 297 290 275 272 275 269 263 254 254 263 266 265 258 250 242 232 225 221 218 217 216 219 222 225 232 228 209 205 209 203 201 210 256 321 329 333 342 355 356 352 349 347 346 347 347 346 347 346 338 330 329 330 333
114 112 111 106 78 84 98 106 99 56 60 79 80 92 74 344 341 347 315 254 271 315 330 282 236 291 332 14 41 27 43 21 304 277 278 281 283 284 275 271 266 260 265 268 269 266 260 256 248 234 225 221 218 217 219 222 223 229 221 205 207 210 203 203 216 254 313 325 328 339 353 355 352 349 346 344 343 342 342 343 343 339 332 328 326 325
94 116 124 106 34 49 134 120 80 55 58 53 39 17 350 337 321 341 11 259 249 290 309 280 221 254 305 358 39 40 57 61 36 15 251 271 275 278 272 268 268 260 259 262 264 264 258 256 255 242 228 219 214 215 219 221 220 216 205 202 208 210 205 207 219 256 303 315 327 335 343 351 352 350 348 345 342 341 341 342 341 338 332 326 322 319
89 100 111 89 42 36 97 121 73 52 44 28 9 346 347 349 347 20 24 269 238 273 296 280 197 242 306 8 49 51 58 62 44 38 278 268 272 276 277 264 259 252 250 253 257 261 258 251 246 237 226 217 211 212 217 221 220 211 203 204 209 211 209 211 221 255 294 312 337 342 341 348 351 350 349 347 345 344 343 342 341 340 334 327 320 316
100 101 100 82 60 50 54 62 42 43 47 13 358 329 326 2 43 56 33 181 204 286 311 20 350 247 289 23 43 58 58 50 36 39 54 344 298 285 296 322 287 254 247 251 256 263 261 250 244 234 220 213 210 209 213 217 217 210 205 206 210 214 215 215 224 253 285 309 338 344 342 345 347 347 347 348 347 346 344 341 340 340 339 334 326 319
116 114 101 72 53 52 45 25 31 38 177 316 350 288 230 34 77 57 41 121 145 350 1 355 341 240 227 353 15 89 100 49 29 26 36 41 29 23 23 25 25 8 296 275 274 278 275 262 251 233 215 211 211 211 212 213 210 205 204 207 212 216 219 221 228 246 270 295 318 330 335 339 342 343 345 347 347 346 344 340 337 336 337 338 337 330
116 117 111 56 37 48 35 22 39 34 45 244 348 4 178 59 49 345 344 72 227 350 4 349 356 168 239 301 356 120 144 67 34 21 26 46 47 39 32 29 33 31 19 354 337 330 318 292 260 229 214 214 216 217 215 210 205 203 205 209 213 218 222 224 232 245 259 276 292 307 319 328 335 340 342 344 344 344 343 339 335 333 334 337 339 337
110 117 105 52 42 36 21 14 22 24 29 79 45 67 85 77 66 315 291 333 302 332 11 16 96 52 323 316 350 155 163 53 36 37 36 48 44 35 32 33 34 31 29 20 6 31 55 11 256 223 216 217 220 220 217 212 208 207 208 212 216 221 225 228 236 246 254 265 277 290 302 314 325 333 337 339 340 340 340 337 334 332 333 336 338 336
99 97 49 60 70 44 38 35 33 43 62 101 112 96 91 107 108 260 240 233 292 311 16 35 93 7 11 44 63 167 161 43 37 40 37 45 39 35 37 39 34 25 27 28 19 29 85 117 170 211 217 221 223 222 221 216 213 212 214 218 221 224 229 234 240 248 255 264 272 281 291 302 313 324 330 334 337 337 337 336 334 334 334 337 338 334
99 87 58 58 52 34 55 58 57 81 134 108 111 113 103 102 100 102 133 143 292 300 17 15 11 2 23 99 131 149 133 35 30 23 27 40 38 39 42 38 31 20 22 28 25 26 53 131 159 191 210 221 226 229 229 222 218 218 222 227 229 230 234 239 245 252 258 265 272 278 286 294 304 316 324 330 334 335 335 335 333 335 337 337 336 332
115 106 88 57 17 351 46 65 67 71 78 99 96 97 103 95 76 91 118 61 44 76 26 3 2 5 59 127 134 131 96 26 12 6 17 32 37 40 38 33 28 20 19 21 23 28 34 63 166 185 198 216 226 233 236 231 227 228 231 235 237 238 241 246 252 259 265 270 274 278 283 290 299 310 318 325 330 331 331 331 331 335 338 337 335 330
126 145 129 59 25 18 60 72 81 77 70 70 80 95 108 81 63 93 123 59 51 66 344 4 20 20 48 111 145 143 85 1 356 2 19 29 35 34 30 30 27 24 26 23 21 25 28 27 37 199 201 213 224 230 237 238 238 237 239 242 244 247 249 253 257 261 267 271 273 275 279 286 294 301 309 318 323 325 327 328 331 337 339 338 335 329
357 190 184 58 44 55 87 103 94 74 58 39 47 57 348 6 32 353 42 65 37 37 299 344 31 37 21 28 201 211 237 298 348 5 20 30 31 22 21 22 19 22 29 25 21 19 12 4 335 225 215 224 230 233 236 240 244 244 246 250 252 255 256 257 260 263 267 271 273 274 277 282 288 292 300 310 315 318 322 324 329 337 339 338 336 329
357 329 240 225 11 338 241 162 80 61 44 28 35 23 7 34 11 356 59 119 117 124 216 315 3 58 358 312 276 272 265 262 294 332 1 18 15 349 347 352 359 8 17 17 15 5 349 324 282 237 227 237 240 242 242 243 246 248 251 254 256 258 260 261 264 266 268 271 273 274 275 279 282 284 290 299 306 312 316 319 325 332 336 338 338 334
333 329 321 284 301 314 7 88 77 75 58 43 65 66 59 59 34 34 91 79 73 135 159 117 330 261 203 181 269 290 280 265 268 274 286 297 280 264 292 320 338 337 343 351 339 324 323 308 287 268 261 268 269 267 262 257 257 256 258 261 262 263 265 266 268 269 270 271 271 271 273 275 277 278 281 288 297 304 310 313 318 327 332 337 341 340
323 315 355 1 313 17 119 114 100 100 98 96 99 87 81 67 33 52 117 51 43 20 164 144 267 256 198 163 127 49 1 318 293 273 269 276 277 272 275 284 293 292 299 313 307 301 299 283 263 256 265 278 281 281 275 269 267 268 271 272 272 274 275 274 273 272 272 270 269 269 270 271 275 275 271 277 288 297 304 307 313 324 329 333 338 341
346 331 36 99 131 134 137 138 122 112 112 112 105 88 80 70 49 65 88 349 346 307 240 176 271 263 207 196 322 346 338 333 327 312 301 299 300 301 300 295 292 287 277 273 278 284 281 265 253 260 270 274 275 275 273 272 273 273 275 276 277 282 286 283 279 276 274 272 269 268 269 272 275 273 266 270 281 290 299 303 308 322 328 330 335 337
6 11 54 119 145 150 155 156 139 124 119 103 92 79 65 54 44 38 341 302 294 267 229 163 285 274 237 256 311 327 326 325 327 322 318 319 320 318 314 312 306 293 279 278 282 277 262 253 260 279 276 261 266 271 268 267 269 270 273 276 279 284 286 285 283 281 279 275 270 268 270 272 273 272 266 267 275 283 295 300 303 316 326 329 330 332
19 23 27 112 139 148 173 180 165 156 168 9 36 40 15 2 358 360 359 311 281 257 231 196 231 281 299 301 307 313 313 315 321 318 314 321 325 320 314 316 314 295 279 277 277 265 248 246 254 268 271 253 252 264 265 261 261 265 268 271 275 280 283 283 284 283 281 279 275 271 271 270 269 268 263 262 270 278 289 297 298 309 322 327 328 328
18 18 13 99 137 161 200 219 233 246 269 302 328 339 335 329 319 314 302 306 310 276 248 247 268 290 301 296 298 307 307 306 310 310 312 321 324 322 313 306 299 284 273 273 276 274 271 276 281 289 294 283 264 258 260 259 258 259 263 264 267 273 279 281 282 282 281 279 276 272 267 266 266 263 258 259 266 274 285 293 294 302 317 324 325 325
15 24 37 60 107 160 195 230 260 278 293 305 315 321 323 315 300 291 276 287 305 295 287 295 296 297 302 305 311 319 316 307 305 311 319 326 329 330 324 307 292 284 279 284 298 301 296 298 296 294 297 295 287 275 266 260 252 249 253 254 257 264 271 277 280 281 280 277 273 267 260 260 264 260 255 258 264 272 284 290 289 296 311 320 323 324
16 48 91 80 75 82 26 321 309 309 312 316 318 317 315 305 288 279 276 294 312 301 303 316 311 304 315 326 326 326 323 311 308 318 325 331 337 337 335 325 317 320 322 319 319 316 309 308 305 300 298 297 298 295 283 268 252 243 245 245 249 260 268 275 279 280 278 276 271 264 259 260 263 258 255 258 264 273 283 284 282 291 305 315 321 322
39 107 120 101 77 46 14 356 336 326 328 335 331 320 309 298 285 275 275 305 327 315 321 331 320 315 330 340 333 324 322 317 314 320 323 327 334 335 335 332 325 321 325 326 325 322 320 319 315 311 306 297 293 295 294 281 257 240 238 240 243 255 265 270 274 274 273 274 269 261 260 262 261 258 260 263 269 276 280 277 276 286 298 310 319 321
81 146 141 89 55 52 20 360 350 344 339 337 333 327 322 311 289 270 263 278 301 311 326 329 320 322 333 337 324 314 316 317 314 317 318 315 316 322 328 330 322 312 313 320 326 327 326 325 323 320 315 303 291 285 288 288 268 247 245 245 242 250 260 265 268 268 267 269 264 257 255 258 259 260 265 268 271 274 272 269 270 279 291 303 314 319
266 209 212 298 312 62 3 348 351 341 337 343 349 355 358 351 318 272 270 283 298 310 322 323 319 326 331 326 316 309 308 308 308 310 307 300 304 310 313 313 311 310 313 319 323 325 326 326 329 334 334 322 302 284 278 282 278 269 264 254 246 250 257 263 268 267 261 261 260 257 256 259 260 263 267 270 272 270 265 261 262 271 283 295 309 316
270 247 239 281 289 314 335 335 337 332 339 18 24 355 334 333 331 320 315 313 310 316 325 325 323 328 327 318 315 314 309 303 301 301 297 293 299 301 298 297 296 300 310 315 319 324 328 330 335 344 347 341 320 296 281 276 274 272 262 248 243 247 255 262 267 264 255 253 255 259 262 262 261 262 265 270 273 267 258 254 255 262 273 283 299 312
270 256 252 265 275 310 330 325 332 333 353 29 5 352 351 358 346 340 346 340 330 329 331 328 326 325 319 313 314 316 310 299 293 291 288 286 285 282 283 286 289 297 306 310 316 323 329 332 335 341 345 344 332 304 287 282 275 267 257 250 250 255 262 267 268 259 248 243 244 250 256 259 262 263 263 266 269 264 256 253 254 258 264 274 288 304
274 257 253 253 259 289 301 311 329 338 41 10 353 5 38 37 33 11 357 347 334 327 324 326 327 324 316 313 316 313 303 295 286 277 273 270 266 266 274 282 290 299 304 307 315 322 327 329 331 335 337 336 333 313 288 281 276 270 268 264 265 270 276 277 273 261 249 243 243 245 248 253 260 262 262 262 264 262 258 255 253 253 258 266 276 289
304 265 251 250 255 268 276 298 327 335 16 356 348 63 37 18 13 359 345 328 322 320 319 324 328 325 319 324 332 318 301 289 267 247 239 239 241 249 266 281 290 294 298 304 312 317 320 323 325 330 332 329 325 321 302 281 271 269 271 271 271 276 280 281 278 269 257 249 247 247 249 253 256 257 258 260 261 260 259 257 254 253 256 260 266 274
347 296 252 243 245 252 251 237 219 259 333 339 278 219 354 347 343 340 324 306 311 319 322 329 333 330 326 336 348 319 292 265 241 231 230 233 233 237 246 261 276 283 288 298 306 309 312 317 321 324 327 325 319 316 311 296 279 272 270 268 269 272 275 276 276 273 268 262 256 254 253 253 251 250 252 256 258 258 257 256 254 252 252 256 260 266
341 323 268 238 230 228 224 218 236 280 303 198 212 278 335 331 331 328 309 296 303 314 323 328 327 324 318 316 312 278 252 239 235 235 237 237 237 239 244 256 272 280 285 294 302 306 307 312 317 317 317 318 315 311 310 305 294 285 278 275 274 275 274 273 272 272 275 274 269 264 259 254 250 247 246 250 253 254 256 257 255 252 251 255 258 260
331 327 284 234 218 218 226 230 247 292 196 185 212 283 315 325 333 326 301 292 288 290 299 299 295 298 293 279 264 243 234 234 237 241 243 242 243 244 246 254 267 278 289 298 303 306 307 310 314 313 307 305 305 303 308 312 308 300 291 283 280 278 277 275 273 272 272 273 272 269 264 257 251 247 245 246 248 250 252 250 246 244 244 248 252 255
351 359 325 201 200 214 226 230 226 174 195 213 231 265 297 314 323 315 299 290 279 279 284 285 283 277 262 248 238 231 231 232 235 241 247 248 250 253 258 265 272 277 284 290 294 299 302 306 310 309 300 295 296 295 297 306 313 312 305 296 289 283 277 273 272 270 269 269 271 271 269 263 254 249 246 245 245 249 251 250 248 245 239 239 244 250
19 36 66 151 186 210 223 232 245 238 218 230 252 275 291 299 305 309 309 304 293 287 286 289 289 287 284 281 270 260 263 268 267 267 270 273 276 283 292 298 296 289 287 290 294 297 296 295 299 301 296 289 289 291 291 295 301 306 306 304 300 294 284 275 270 267 266 267 268 270 272 269 261 253 250 247 246 249 255 261 264 263 256 250 248 248
21 38 51 119 217 224 225 233 239 226 227 249 268 277 283 290 298 302 301 302 300 295 294 296 297 300 305 309 307 301 299 303 305 304 305 307 309 312 313 310 305 302 299 295 291 289 290 287 285 291 298 295 292 290 290 291 293 297 300 300 298 294 285 277 272 267 263 262 262 264 268 269 266 259 254 251 248 249 254 260 263 265 268 266 261 258
356 344 275 292 300 278 238 234 230 223 240 257 267 272 280 290 293 280 281 292 293 291 295 299 302 307 311 313 313 311 309 311 315 317 317 318 319 320 315 307 308 311 310 302 296 293 294 289 280 276 286 296 298 296 294 292 293 294 296 296 294 289 284 279 276 272 267 262 258 257 259 263 264 261 257 254 252 251 253 257 260 263 265 267 266 267
300 294 287 281 279 266 237 229 217 215 240 254 268 281 290 293 280 266 267 275 280 286 293 299 304 308 311 312 313 313 312 312 310 310 311 312 313 313 311 309 312 314 313 312 311 310 309 306 303 304 309 310 307 304 300 296 295 294 293 292 289 285 281 279 278 277 275 271 264 256 254 255 258 258 256 253 251 252 254 257 260 261 262 264 265 265
286 284 269 248 246 237 220 218 217 229 250 265 278 287 290 283 269 264 269 276 283 289 295 299 301 303 304 306 308 308 308 307 304 303 305 307 308 307 307 307 308 309 310 311 312 313 315 319 322 324 325 322 317 311 306 301 298 296 294 291 286 281 277 275 275 276 277 276 273 265 257 252 252 254 254 251 249 251 255 259 263 263 261 260 261 262
280 260 220 218 244 257 257 252 245 243 251 263 273 277 276 272 271 274 279 284 289 294 296 297 296 296 296 297 299 301 302 302 301 301 303 305 305 306 305 305 305 306 307 307 308 310 311 312 312 313 314 315 314 312 310 307 304 301 297 292 288 283 278 273 271 271 273 274 274 271 263 256 252 250 251 251 251 253 256 259 263 266 263 254 252 257
261 247 239 249 264 268 262 252 245 239 242 252 264 271 273 276 281 283 282 283 286 291 294 295 295 296 297 297 298 299 299 298 298 301 303 304 305 305 305 305 305 305 306 305 304 303 302 303 304 305 306 307 306 306 307 307 307 306 302 296 291 286 281 275 270 269 269 269 270 270 267 263 257 252 249 249 250 253 256 257 262 267 262 250 246 252
263 256 249 251 256 256 245 230 225 231 248 261 269 274 274 276 280 280 277 277 281 284 288 292 296 298 299 300 301 301 300 299 299 300 301 303 304 304 303 303 302 301 301 300 300 299 299 300 301 301 302 303 303 303 305 306 307 307 305 301 296 290 285 279 272 267 266 267 266 266 264 263 263 260 254 251 249 249 250 251 254 258 254 247 248 256
259 255 249 245 243 243 243 239 236 247 264 274 276 278 277 277 279 280 282 284 288 289 289 290 292 293 294 296 300 302 302 302 302 301 301 301 301 302 302 302 301 300 299 299 298 298 299 299 299 300 301 302 303 304 304 305 305 304 304 302 299 294 290 285 278 270 265 264 265 264 261 260 262 263 261 258 253 250 249 249 249 249 246 245 247 253
262 261 257 254 252 251 252 252 252 255 264 273 278 280 282 283 284 287 291 295 296 297 296 295 297 300 303 305 308 310 311 310 308 305 304 302 300 300 299 298 298 298 297 298 298 298 298 299 299 300 300 301 302 303 303 303 302 300 299 298 298 296 294 291 285 278 270 265 263 263 261 259 259 260 261 260 258 255 252 250 250 248 246 244 244 244
264 262 258 256 255 254 253 257 260 262 265 271 278 284 290 295 298 299 300 300 299 298 297 299 303 308 312 314 314 314 314 313 310 307 306 304 302 301 299 298 297 297 296 297 297 298 298 298 299 299 300 301 302 302 301 301 300 299 297 296 296 297 297 294 289 285 279 271 265 263 262 260 260 261 260 257 255 253 251 250 249 248 247 246 243 241
255 254 253 254 253 253 257 263 270 275 277 280 285 291 299 306 309 309 308 307 306 306 307 308 308 310 312 314 314 315 314 312 309 306 305 304 303 302 301 300 298 297 295 294 294 295 296 296 296 296 297 299 301 302 300 298 297 297 297 297 296 296 297 296 291 288 286 279 271 266 264 262 261 262 264 263 258 251 248 248 247 246 245 244 242 240
Height
3146 3146 3146 3147 3147 3147 3147 3148 3148 3148 3148 3148 3148 3148 3148 3148 3148 3148 3148 3148 3147 3148 3148 3148 3148 3147 3147 3147 3146 3146 3145 3145 3145 3145 3145 3145 3145 3146 3146 3147 3148 3148 3149 3149 3150 3151 3152 3153 3154 3154 3155 3157 3157 3158 3159 3159 3160 3160 3161 3161 3162 3162 3163 3163 3164 3164 3164 3165 3165 3165 3164 3164 3163 3163 3162 3162 3161 3160 3160 3159 3159 3159 3158 3157 3157 3157
3146 3146 3147 3147 3147 3147 3147 3148 3148 3148 3148 3148 3148 3148 3148 3148 3148 3148 3148 3148 3148 3148 3148 3148 3148 3148 3147 3147 3146 3146 3145 3145 3145 3145 3144 3144 3145 3145 3146 3146 3147 3147 3148 3149 3150 3150 3151 3152 3153 3154 3155 3156 3157 3158 3158 3159 3160 3160 3161 3162 3162 3163 3163 3163 3164 3164 3164 3165 3165 3164 3163 3163 3162 3162 3161 3160 3159 3158 3158 3157 3157 3157 3156 3156 3156 3155
3147 3147 3147 3147 3147 3147 3147 3147 3148 3148 3148 3148 3148 3148 3148 3148 3148 3149 3148 3148 3148 3148 3148 3148 3148 3148 3147 3147 3146 3146 3146 3145 3145 3145 3144 3144 3145 3145 3145 3146 3147 3147 3148 3149 3150 3150 3150 3152 3153 3153 3154 3155 3157 3157 3158 3159 3160 3160 3161 3162 3163 3163 3163 3163 3164 3164 3164 3164 3164 3164 3164 3163 3162 3161 3160 3159 3158 3157 3156 3155 3155 3154 3154 3153 3153 3153
3147 3148 3148 3148 3148 3147 3147 3147 3147 3147 3148 3148 3149 3149 3148 3148 3149 3149 3148 3149 3149 3148 3148 3148 3147 3147 3147 3146 3146 3146 3146 3145 3145 3145 3145 3145 3145 3144 3145 3145 3145 3146 3147 3148 3149 3149 3150 3151 3152 3153 3153 3155 3156 3157 3158 3159 3160 3161 3161 3162 3163 3163 3163 3164 3164 3164 3164 3164 3164 3164 3163 3163 3162 3161 3160 3159 3158 3157 3156 3154 3153 3152 3152 3151 3151 3151
3148 3148 3148 3148 3148 3148 3147 3147 3147 3147 3148 3148 3149 3149 3149 3149 3149 3149 3149 3149 3149 3149 3148 3148 3147 3147 3146 3146 3146 3146 3145 3145 3145 3145 3145 3145 3145 3145 3144 3144 3144 3145 3146 3147 3148 3149 3149 3149 3151 3152 3153 3154 3155 3156 3158 3158 3159 3160 3161 3162 3163 3163 3164 3164 3164 3164 3165 3164 3164 3164 3163 3162 3161 3160 3159 3158 3158 3157 3155 3154 3152 3151 3151 3151 3150 3150
3148 3148 3148 3148 3148 3148 3148 3147 3147 3148 3148 3148 3149 3149 3149 3149 3149 3148 3149 3149 3149 3149 3148 3148 3148 3147 3146 3146 3146 3146 3146 3145 3145 3145 3145 3145 3145 3145 3145 3144 3144 3144 3145 3146 3146 3147 3148 3149 3149 3150 3152 3153 3154 3156 3157 3158 3159 3160 3160 3161 3163 3163 3164 3165 3165 3165 3165 3165 3164 3164 3163 3162 3161 3160 3159 3158 3157 3156 3155 3154 3153 3152 3151 3151 3150 3150
3148 3148 3148 3148 3148 3148 3148 3148 3148 3148 3149 3149 3149 3149 3149 3149 3149 3148 3149 3149 3149 3149 3148 3148 3148 3147 3146 3146 3146 3146 3146 3146 3145 3145 3145 3145 3144 3144 3144 3144 3144 3144 3144 3145 3145 3146 3147 3148 3148 3149 3151 3152 3153 3155 3156 3157 3158 3159 3160 3161 3163 3163 3164 3164 3165 3165 3165 3165 3164 3164 3163 3162 3161 3160 3159 3158 3157 3155 3155 3154 3153 3152 3151 3150 3150 3149
3149 3149 3149 3149 3149 3148 3148 3148 3148 3148 3148 3149 3149 3149 3149 3149 3149 3149 3149 3149 3149 3149 3149 3148 3148 3148 3146 3146 3147 3146 3146 3146 3145 3145 3145 3144 3144 3144 3144 3144 3144 3144 3144 3144 3144 3145 3145 3147 3148 3149 3150 3151 3152 3153 3155 3156 3157 3158 3159 3161 3162 3163 3164 3164 3164 3165 3165 3165 3164 3164 3163 3163 3162 3161 3160 3158 3157 3156 3154 3153 3152 3151 3150 3150 3149 3149
3149 3149 3150 3150 3149 3148 3148 3148 3148 3148 3148 3148 3148 3149 3149 3148 3149 3148 3148 3149 3149 3149 3149 3148 3148 3149 3147 3146 3147 3147 3146 3146 3146 3145 3145 3144 3144 3144 3143 3143 3143 3143 3143 3143 3143 3143 3144 3145 3146 3147 3148 3149 3150 3152 3153 3154 3155 3157 3158 3160 3162 3163 3163 3163 3164 3164 3164 3164 3164 3163 3163 3162 3162 3161 3160 3159 3158 3156 3155 3154 3153 3151 3150 3150 3149 3149
3149 3149 3149 3149 3149 3148 3148 3148 3148 3148 3148 3148 3148 3148 3148 3148 3148 3148 3148 3148 3149 3150 3149 3149 3149 3149 3148 3147 3147 3147 3147 3147 3146 3146 3145 3145 3144 3143 3143 3143 3142 3142 3143 3142 3142 3142 3142 3143 3144 3145 3146 3148 3149 3150 3152 3152 3154 3155 3157 3159 3160 3162 3162 3163 3163 3164 3164 3164 3163 3163 3162 3162 3161 3161 3160 3159 3158 3157 3155 3154 3153 3152 3151 3149 3149 3148
3149 3150 3149 3149 3149 3148 3148 3149 3148 3149 3149 3148 3148 3148 3148 3148 3148 3148 3148 3148 3149 3150 3150 3149 3149 3149 3148 3147 3147 3147 3147 3147 3147 3146 3146 3145 3144 3144 3143 3142 3142 3142 3142 3142 3141 3141 3141 3141 3142 3143 3145 3146 3147 3149 3150 3151 3152 3154 3156 3158 3159 3160 3161 3162 3162 3163 3163 3163 3163 3163 3162 3162 3161 3160 3160 3158 3157 3156 3155 3154 3153 3151 3150 3149 3148 3147
3150 3150 3150 3149 3149 3149 3149 3149 3149 3149 3149 3149 3148 3148 3148 3148 3148 3148 3149 3149 3150 3151 3150 3149 3149 3149 3149 3148 3147 3148 3148 3148 3147 3147 3146 3145 3144 3144 3143 3143 3142 3142 3141 3141 3141 3140 3140 3140 3141 3142 3144 3146 3147 3148 3149 3150 3152 3153 3155 3157 3158 3159 3161 3161 3162 3162 3163 3163 3163 3162 3162 3161 3161 3160 3159 3158 3156 3155 3154 3153 3152 3151 3150 3148 3147 3146
3150 3150 3150 3150 3150 3149 3149 3149 3149 3149 3149 3149 3148 3148 3148 3149 3149 3150 3150 3151 3151 3150 3150 3149 3148 3148 3149 3148 3148 3148 3148 3148 3148 3148 3147 3146 3145 3145 3144 3143 3143 3142 3142 3141 3141 3140 3140 3140 3141 3142 3144 3145 3147 3148 3149 3150 3152 3153 3155 3156 3157 3159 3160 3160 3161 3161 3162 3162 3162 3162 3162 3161 3160 3160 3158 3157 3156 3154 3153 3152 3151 3150 3149 3148 3146 3145
3150 3150 3150 3150 3150 3149 3149 3149 3149 3149 3149 3148 3148 3148 3148 3149 3152 3153 3153 3153 3151 3150 3149 3149 3148 3148 3148 3148 3148 3148 3148 3148 3148 3148 3148 3147 3146 3145 3145 3144 3144 3143 3142 3142 3141 3141 3141 3141 3141 3142 3144 3145 3147 3148 3149 3150 3152 3153 3154 3155 3157 3158 3159 3160 3160 3161 3161 3161 3161 3161 3161 3161 3160 3159 3158 3157 3155 3154 3153 3151 3151 3149 3148 3147 3146 3144
3150 3150 3150 3150 3150 3150 3149 3149 3149 3149 3149 3148 3148 3148 3148 3149 3150 3152 3152 3152 3151 3150 3149 3149 3149 3149 3149 3148 3149 3149 3149 3149 3149 3149 3148 3148 3147 3146 3146 3145 3145 3144 3143 3143 3142 3142 3142 3142 3142 3143 3144 3145 3147 3148 3149 3150 3151 3152 3154 3155 3156 3157 3158 3159 3160 3160 3160 3160 3160 3160 3160 3160 3159 3158 3157 3156 3155 3154 3152 3151 3150 3148 3147 3146 3145 3144
3150 3151 3150 3150 3150 3150 3150 3149 3149 3149 3149 3148 3148 3148 3148 3148 3148 3150 3151 3151 3150 3150 3150 3149 3149 3150 3150 3149 3149 3150 3150 3150 3150 3150 3149 3149 3148 3147 3147 3146 3146 3145 3144 3144 3143 3143 3143 3143 3143 3144 3145 3146 3147 3148 3149 3150 3151 3152 3153 3154 3155 3156 3157 3158 3158 3159 3159 3159 3159 3160 3159 3159 3158 3157 3156 3155 3154 3153 3151 3150 3149 3148 3147 3145 3144 3142
3151 3151 3151 3151 3150 3150 3150 3150 3149 3149 3149 3149 3148 3148 3148 3149 3149 3149 3150 3150 3150 3150 3151 3151 3150 3150 3150 3150 3150 3150 3151 3150 3150 3150 3150 3150 3149 3148 3148 3147 3147 3146 3146 3145 3145 3144 3144 3144 3144 3144 3145 3146 3147 3148 3148 3149 3150 3151 3152 3153 3154 3154 3155 3156 3157 3157 3158 3158 3158 3158 3158 3158 3157 3156 3156 3155 3153 3152 3151 3150 3148 3147 3146 3145 3143 3142
3150 3151 3151 3151 3151 3150 3150 3150 3150 3150 3149 3149 3149 3149 3149 3149 3149 3149 3149 3150 3151 3152 3152 3151 3151 3151 3151 3151 3151 3151 3151 3151 3151 3151 3151 3150 3150 3149 3149 3148 3148 3147 3147 3146 3146 3146 3146 3145 3145 3145 3146 3146 3147 3148 3148 3149 3149 3150 3151 3152 3152 3153 3154 3155 3155 3156 3156 3157 3157 3157 3157 3156 3156 3155 3155 3154 3153 3152 3151 3149 3148 3147 3146 3144 3143 3141
3151 3150 3151 3151 3151 3150 3150 3150 3150 3150 3150 3150 3149 3149 3149 3149 3149 3149 3149 3150 3152 3154 3154 3152 3151 3151 3151 3151 3151 3151 3151 3151 3151 3151 3151 3151 3150 3150 3150 3149 3149 3148 3148 3147 3147 3147 3147 3146 3146 3146 3146 3147 3147 3148 3148 3148 3149 3149 3150 3151 3151 3152 3152 3153 3154 3154 3155 3155 3155 3155 3155 3155 3154 3154 3154 3153 3152 3151 3150 3149 3147 3146 3145 3144 3142 3140
3151 3150 3150 3151 3150 3150 3150 3150 3150 3150 3150 3150 3150 3150 3150 3149 3149 3150 3150 3151 3151 3154 3155 3153 3152 3152 3151 3151 3151 3151 3151 3151 3151 3151 3151 3151 3151 3150 3150 3150 3149 3149 3148 3148 3147 3147 3147 3147 3147 3147 3147 3147 3147 3148 3148 3148 3148 3149 3149 3150 3150 3151 3151 3151 3152 3152 3153 3153 3153 3154 3153 3153 3153 3153 3152 3152 3151 3150 3149 3148 3147 3146 3145 3143 3141 3140
3151 3150 3150 3150 3150 3150 3150 3150 3150 3150 3150 3150 3150 3150 3150 3150 3151 3150 3151 3152 3152 3153 3155 3154 3153 3152 3151 3152 3151 3151 3151 3151 3151 3151 3151 3151 3150 3150 3150 3150 3149 3149 3148 3148 3147 3147 3147 3147 3147 3147 3147 3147 3147 3147 3147 3148 3148 3148 3148 3149 3149 3149 3149 3150 3150 3150 3151 3151 3151 3151 3151 3151 3151 3151 3151 3151 3150 3150 3149 3148 3146 3145 3144 3142 3141 3139
3150 3150 3150 3150 3150 3150 3150 3151 3151 3151 3151 3151 3151 3151 3151 3151 3151 3151 3152 3152 3152 3153 3154 3154 3153 3151 3151 3152 3151 3151 3151 3151 3151 3151 3151 3151 3150 3150 3150 3149 3149 3149 3149 3148 3148 3147 3147 3147 3146 3146 3146 3147 3147 3147 3147 3147 3147 3147 3148 3148 3148 3148 3148 3148 3148 3148 3149 3149 3149 3149 3149 3149 3149 3149 3149 3149 3149 3149 3148 3147 3146 3144 3143 3141 3140 3138
3149 3149 3149 3150 3150 3150 3151 3151 3151 3151 3151 3151 3151 3151 3152 3152 3152 3152 3152 3152 3152 3153 3153 3153 3153 3151 3151 3151 3151 3151 3151 3151 3151 3151 3151 3150 3150 3150 3149 3149 3149 3148 3148 3148 3147 3147 3146 3146 3146 3146 3146 3146 3146 3146 3146 3146 3146 3146 3146 3146 3146 3146 3146 3146 3146 3146 3146 3146 3147 3147 3147 3147 3147 3147 3147 3148 3148 3147 3147 3146 3145 3143 3142 3140 3139 3137
3149 3149 3150 3150 3151 3151 3151 3151 3151 3151 3151 3151 3151 3152 3152 3152 3152 3152 3152 3152 3152 3152 3152 3153 3152 3151 3151 3151 3151 3151 3151 3150 3150 3150 3150 3150 3149 3149 3149 3148 3148 3148 3147 3147 3146 3146 3146 3145 3145 3145 3145 3145 3145 3145 3145 3145 3145 3145 3145 3145 3145 3145 3145 3145 3144 3144 3144 3144 3144 3144 3144 3145 3145 3145 3146 3146 3146 3146 3145 3145 3144 3143 3141 3140 3139 3137
3149 3149 3150 3150 3151 3152 3153 3152 3151 3151 3151 3152 3152 3152 3152 3152 3152 3151 3151 3151 3151 3151 3151 3152 3152 3151 3151 3151 3150 3150 3150 3150 3149 3149 3149 3149 3148 3148 3148 3147 3147 3147 3146 3146 3145 3145 3145 3145 3144 3144 3144 3144 3143 3143 3143 3143 3143 3143 3144 3143 3143 3144 3143 3143 3143 3143 3142 3142 3142 3142 3142 3143 3143 3143 3144 3144 3144 3144 3144 3143 3143 3142 3141 3140 3138 3137
3150 3149 3149 3149 3151 3153 3153 3152 3151 3151 3151 3151 3151 3152 3151 3151 3151 3151 3150 3150 3150 3150 3150 3150 3150 3150 3150 3150 3150 3149 3149 3148 3148 3148 3148 3148 3148 3147 3147 3146 3146 3146 3146 3145 3145 3145 3144 3144 3144 3143 3143 3143 3142 3142 3142 3142 3141 3141 3142 3142 3142 3142 3141 3141 3141 3141 3141 3140 3140 3140 3140 3141 3141 3142 3142 3142 3142 3142 3142 3142 3142 3141 3140 3139 3138 3136
3149 3149 3149 3149 3150 3151 3151 3151 3151 3151 3151 3151 3151 3151 3151 3150 3150 3150 3150 3149 3149 3149 3149 3149 3148 3148 3149 3149 3149 3148 3148 3147 3147 3147 3147 3147 3147 3147 3146 3146 3145 3145 3145 3145 3145 3144 3144 3143 3143 3142 3141 3141 3140 3140 3140 3140 3140 3140 3140 3140 3140 3140 3140 3139 3139 3139 3138 3138 3138 3138 3139 3139 3139 3140 3140 3140 3140 3141 3141 3141 3140 3140 3139 3138 3137 3135
3149 3149 3149 3149 3149 3150 3150 3150 3150 3150 3150 3150 3150 3150 3149 3149 3149 3149 3149 3149 3148 3148 3148 3148 3147 3147 3147 3147 3147 3147 3146 3146 3146 3147 3147 3146 3146 3146 3145 3145 3144 3144 3144 3144 3144 3143 3143 3142 3141 3140 3140 3139 3138 3138 3138 3138 3138 3137 3137 3138 3138 3138 3138 3138 3137 3137 3136 3136 3136 3136 3137 3137 3137 3138 3138 3138 3138 3139 3139 3139 3139 3138 3138 3137 3136 3134
3149 3149 3149 3149 3149 3150 3150 3150 3150 3149 3149 3149 3149 3148 3148 3148 3148 3148 3148 3148 3147 3147 3147 3147 3147 3146 3146 3146 3146 3146 3146 3146 3146 3146 3146 3145 3145 3145 3145 3144 3144 3143 3143 3143 3143 3142 3141 3140 3140 3139 3138 3137 3136 3135 3135 3135 3134 3135 3135 3135 3136 3136 3136 3136 3135 3135 3134 3134 3134 3135 3135 3136 3136 3136 3136 3137 3137 3137 3138 3137 3137 3137 3137 3136 3135 3134
3149 3149 3149 3149 3150 3150 3150 3150 3149 3149 3149 3149 3148 3148 3147 3147 3147 3147 3147 3147 3147 3147 3146 3146 3146 3146 3146 3146 3146 3145 3145 3145 3145 3145 3144 3144 3144 3144 3144 3143 3143 3142 3142 3142 3141 3141 3140 3139 3138 3136 3135 3134 3132 3132 3132 3132 3132 3132 3133 3133 3134 3134 3133 3133 3133 3133 3133 3133 3133 3133 3134 3134 3134 3134 3135 3135 3135 3135 3136 3136 3136 3136 3135 3135 3134 3133
3148 3149 3149 3149 3149 3149 3149 3149 3149 3149 3149 3148 3148 3147 3147 3147 3147 3146 3146 3146 3146 3146 3146 3146 3145 3146 3145 3145 3145 3145 3144 3144 3144 3143 3143 3143 3143 3143 3143 3142 3142 3142 3141 3141 3140 3140 3139 3138 3136 3134 3132 3131 3129 3129 3130 3130 3130 3131 3132 3132 3132 3131 3131 3131 3131 3131 3131 3131 3131 3132 3132 3132 3132 3132 3133 3133 3134 3134 3134 3134 3134 3134 3134 3134 3133 3132
3148 3148 3148 3148 3148 3149 3149 3149 3149 3149 3148 3148 3147 3147 3147 3147 3146 3146 3146 3145 3145 3145 3145 3145 3145 3145 3145 3144 3144 3144 3143 3143 3143 3142 3142 3142 3142 3142 3142 3141 3141 3141 3140 3140 3139 3138 3137 3136 3135 3133 3131 3129 3128 3128 3128 3129 3129 3129 3130 3130 3129 3129 3129 3129 3129 3129 3129 3130 3130 3130 3130 3130 3131 3131 3131 3132 3132 3132 3132 3132 3132 3132 3132 3132 3132 3131
3147 3147 3148 3148 3148 3148 3148 3149 3148 3148 3148 3148 3147 3147 3146 3146 3146 3146 3145 3145 3145 3145 3145 3144 3144 3144 3144 3143 3143 3142 3142 3142 3141 3141 3141 3141 3141 3141 3141 3141 3140 3140 3139 3139 3138 3137 3136 3135 3134 3132 3130 3129 3128 3128 3127 3128 3128 3128 3128 3128 3128 3128 3127 3127 3127 3127 3127 3128 3128 3128 3128 3128 3129 3129 3130 3130 3130 3130 3130 3130 3130 3130 3130 3130 3130 3129
3146 3146 3147 3147 3147 3147 3148 3148 3148 3148 3149 3148 3147 3147 3146 3146 3146 3145 3145 3145 3144 3144 3144 3144 3144 3143 3142 3142 3141 3141 3141 3141 3141 3140 3140 3140 3140 3140 3140 3139 3139 3139 3138 3137 3137 3136 3135 3134 3133 3132 3130 3129 3128 3127 3127 3127 3127 3127 3127 3127 3127 3127 3126 3126 3126 3125 3125 3126 3126 3126 3126 3127 3127 3127 3128 3128 3128 3128 3128 3128 3129 3128 3129 3129 3128 3128
3144 3145 3146 3146 3147 3147 3147 3147 3148 3149 3149 3148 3147 3147 3147 3146 3146 3145 3145 3144 3144 3144 3144 3144 3143 3142 3141 3141 3140 3140 3140 3140 3139 3139 3138 3138 3138 3138 3138 3138 3138 3137 3137 3136 3136 3135 3134 3132 3132 3131 3130 3128 3127 3126 3126 3126 3126 3126 3125 3125 3126 3125 3125 3125 3124 3124 3124 3124 3124 3124 3124 3125 3125 3125 3125 3125 3125 3126 3126 3126 3127 3127 3127 3127 3127 3127
3144 3144 3144 3145 3145 3146 3146 3147 3147 3147 3147 3147 3147 3147 3147 3146 3146 3145 3145 3144 3144 3143 3143 3143 3142 3141 3141 3140 3140 3140 3139 3139 3138 3137 3137 3137 3137 3137 3136 3136 3136 3135 3135 3135 3134 3133 3132 3132 3131 3130 3129 3128 3126 3125 3125 3124 3124 3124 3124 3124 3124 3123 3123 3123 3123 3123 3123 3123 3123 3122 3122 3122 3123 3123 3123 3123 3123 3123 3124 3124 3124 3124 3125 3125 3125 3125
3143 3143 3143 3143 3144 3145 3145 3145 3146 3146 3146 3146 3147 3146 3146 3146 3145 3145 3144 3144 3143 3142 3142 3142 3141 3141 3140 3140 3139 3139 3139 3138 3137 3137 3137 3136 3136 3136 3135 3134 3134 3134 3134 3134 3133 3132 3131 3130 3130 3129 3128 3127 3126 3124 3124 3123 3122 3122 3122 3122 3122 3121 3121 3121 3121 3121 3121 3121 3121 3120 3120 3120 3120 3120 3120 3120 3120 3120 3121 3121 3122 3122 3122 3123 3123 3124
3143 3142 3142 3142 3143 3143 3144 3144 3145 3145 3146 3146 3146 3146 3145 3145 3145 3144 3144 3143 3143 3142 3142 3141 3141 3140 3140 3139 3139 3138 3138 3138 3137 3137 3136 3135 3135 3134 3134 3133 3132 3132 3132 3131 3131 3130 3130 3129 3128 3128 3126 3125 3124 3123 3123 3122 3121 3121 3120 3120 3119 3119 3119 3119 3119 3119 3119 3119 3118 3118 3117 3117 3117 3117 3117 3117 3117 3117 3117 3117 3117 3118 3119 3120 3121 3122
3142 3142 3141 3141 3142 3143 3143 3144 3144 3144 3145 3145 3145 3145 3144 3144 3144 3144 3143 3143 3142 3142 3142 3141 3140 3140 3139 3138 3138 3138 3137 3136 3136 3135 3134 3134 3134 3133 3132 3131 3131 3131 3130 3129 3128 3128 3128 3127 3127 3126 3125 3124 3123 3122 3121 3121 3120 3119 3119 3118 3117 3117 3117 3117 3117 3117 3117 3116 3116 3115 3115 3115 3114 3114 3114 3114 3114 3113 3112 3113 3114 3114 3115 3117 3118 3119
3141 3141 3141 3141 3142 3142 3143 3143 3143 3143 3143 3143 3143 3143 3144 3144 3143 3143 3143 3143 3142 3142 3142 3141 3140 3140 3139 3139 3138 3138 3137 3135 3135 3134 3133 3133 3133 3132 3130 3130 3129 3129 3128 3127 3126 3126 3125 3125 3124 3124 3123 3121 3120 3120 3119 3119 3119 3118 3118 3117 3116 3116 3115 3115 3114 3114 3114 3114 3113 3113 3113 3112 3112 3112 3112 3112 3112 3111 3110 3111 3112 3113 3113 3115 3116 3117
3141 3141 3141 3141 3141 3142 3142 3142 3142 3142 3142 3142 3142 3142 3142 3143 3142 3142 3142 3142 3141 3141 3141 3140 3139 3138 3138 3138 3137 3137 3136 3134 3134 3133 3132 3132 3131 3130 3129 3128 3127 3126 3125 3124 3123 3122 3122 3122 3121 3121 3120 3119 3118 3118 3117 3117 3116 3116 3116 3115 3115 3114 3113 3112 3111 3111 3111 3111 3110 3110 3110 3110 3110 3110 3109 3109 3109 3109 3109 3109 3110 3110 3111 3112 3113 3114
3141 3141 3141 3141 3141 3141 3141 3141 3141 3141 3140 3141 3141 3141 3141 3141 3141 3141 3141 3141 3140 3139 3139 3138 3138 3137 3136 3136 3135 3135 3134 3133 3132 3131 3130 3129 3128 3127 3127 3126 3125 3124 3123 3122 3121 3120 3120 3119 3118 3117 3117 3116 3115 3115 3114 3114 3114 3114 3113 3113 3112 3112 3111 3110 3108 3108 3107 3107 3107 3107 3107 3107 3107 3107 3107 3107 3107 3107 3107 3108 3107 3108 3109 3109 3110 3111
3140 3140 3140 3140 3140 3140 3139 3139 3139 3139 3139 3139 3139 3139 3139 3140 3140 3139 3139 3138 3138 3137 3137 3137 3136 3135 3134 3134 3133 3133 3132 3131 3130 3129 3128 3127 3126 3126 3125 3124 3123 3122 3121 3120 3119 3118 3117 3116 3114 3113 3113 3113 3113 3112 3111 3111 3111 3110 3109 3109 3109 3108 3108 3107 3106 3105 3105 3104 3104 3104 3104 3104 3104 3104 3104 3104 3104 3105 3105 3105 3105 3106 3106 3106 3106 3107
3139 3139 3139 3139 3139 3138 3138 3138 3138 3138 3137 3138 3138 3138 3137 3138 3138 3137 3137 3137 3136 3136 3136 3136 3135 3134 3132 3132 3131 3131 3130 3129 3128 3127 3126 3126 3125 3124 3123 3122 3121 3120 3119 3118 3118 3116 3115 3113 3112 3111 3111 3111 3110 3109 3108 3108 3107 3106 3105 3104 3104 3104 3104 3104 3103 3103 3102 3102 3101 3101 3101 3100 3101 3101 3101 3101 3101 3101 3102 3103 3103 3103 3103 3103 3103 3102
3137 3138 3138 3138 3137 3137 3137 3137 3137 3137 3137 3136 3136 3136 3136 3136 3136 3136 3136 3136 3135 3134 3134 3133 3133 3132 3131 3130 3129 3129 3128 3127 3126 3125 3124 3123 3123 3122 3121 3120 3119 3118 3117 3117 3116 3115 3113 3112 3111 3111 3110 3109 3108 3107 3105 3104 3103 3102 3102 3100 3099 3099 3100 3100 3099 3099 3099 3099 3098 3098 3097 3097 3097 3097 3097 3097 3097 3098 3099 3099 3099 3099 3098 3099 3100 3099
3136 3137 3137 3137 3136 3136 3136 3136 3136 3136 3136 3135 3135 3135 3135 3135 3135 3135 3134 3134 3133 3133 3132 3131 3130 3129 3128 3127 3127 3126 3126 3125 3124 3123 3122 3121 3120 3119 3119 3118 3117 3116 3115 3114 3113 3112 3111 3110 3109 3108 3107 3106 3105 3103 3102 3101 3099 3098 3097 3096 3095 3095 3095 3095 3095 3095 3095 3095 3094 3094 3094 3094 3093 3093 3093 3093 3093 3094 3095 3095 3095 3095 3094 3095 3096 3097
3134 3135 3135 3135 3135 3135 3135 3135 3135 3135 3134 3134 3134 3134 3134 3133 3133 3133 3132 3132 3131 3130 3130 3129 3128 3127 3126 3125 3124 3124 3123 3122 3121 3121 3120 3119 3118 3117 3116 3115 3114 3113 3112 3111 3110 3108 3107 3106 3105 3104 3103 3102 3101 3100 3099 3097 3096 3094 3093 3092 3091 3090 3090 3090 3090 3090 3090 3090 3090 3090 3090 3090 3090 3090 3089 3089 3089 3089 3090 3090 3090 3090 3090 3092 3093 3094
3133 3133 3133 3133 3134 3134 3134 3133 3134 3133 3133 3132 3132 3132 3132 3131 3131 3130 3130 3129 3128 3128 3127 3126 3125 3124 3123 3122 3121 3120 3120 3119 3118 3117 3117 3116 3115 3114 3113 3112 3111 3110 3109 3108 3107 3105 3104 3103 3102 3100 3099 3098 3097 3096 3094 3093 3092 3091 3089 3088 3087 3086 3085 3085 3085 3085 3085 3085 3086 3086 3086 3086 3086 3086 3086 3086 3085 3085 3085 3086 3086 3086 3086 3087 3088 3089
3130 3130 3131 3131 3131 3132 3131 3131 3131 3132 3131 3130 3129 3129 3129 3129 3129 3128 3127 3126 3126 3125 3124 3123 3122 3121 3120 3119 3119 3118 3117 3116 3115 3114 3113 3112 3112 3111 3110 3109 3108 3106 3105 3104 3103 3102 3101 3099 3098 3097 3095 3094 3092 3091 3090 3089 3088 3087 3086 3084 3083 3081 3081 3080 3079 3080 3080 3080 3080 3081 3081 3082 3082 3082 3081 3081 3081 3082 3082 3082 3082 3082 3083 3083 3084 3084
3127 3128 3128 3128 3129 3129 3128 3128 3128 3129 3129 3128 3128 3127 3126 3126 3126 3125 3125 3124 3123 3122 3122 3121 3120 3119 3118 3117 3116 3115 3114 3113 3112 3112 3110 3109 3108 3107 3106 3105 3104 3103 3101 3100 3099 3098 3097 3096 3094 3093 3092 3090 3089 3087 3086 3085 3084 3083 3081 3080 3079 3077 3076 3075 3074 3074 3075 3075 3075 3075 3076 3076 3077 3077 3076 3076 3076 3077 3078 3078 3078 3079 3079 3080 3080 3081
3125 3125 3125 3126 3126 3126 3126 3126 3126 3126 3127 3126 3126 3125 3124 3124 3123 3123 3122 3121 3121 3120 3119 3118 3118 3117 3116 3115 3113 3112 3111 3110 3109 3108 3107 3105 3104 3103 3101 3100 3099 3098 3097 3096 3094 3093 3093 3092 3090 3089 3088 3087 3085 3084 3082 3081 3080 3078 3077 3076 3074 3073 3072 3071 3070 3069 3069 3070 3069 3070 3070 3071 3072 3071 3070 3070 3072 3073 3073 3073 3074 3074 3075 3076 3077 3078